F5PHW-13 Weather Reports


time (UTC)temp
C
wind
direction
speed
KPH
gust
KPH
rain 1hr
cm
rain 24hr
cm
rain mn
cm
humidity
%
barometer
mb
20260506045117 10 45 1.6 3.2 0.00 0.28 0.00 90 1009.4
20260506043121 10 0.0 3.2 0.00 0.28 0.00 90 1009.4
20260506041121 10 0.0 3.2 0.00 0.28 0.00 90 1009.5
20260506035121 10 45 1.6 4.8 0.00 0.28 0.00 90 1009.6
20260506033120 10 45 3.2 8.0 0.00 0.28 0.00 90 1009.6
20260506031121 10 0.0 0.0 0.00 0.28 0.00 90 1009.7
20260506025120 10 45 1.6 4.8 0.00 0.28 0.00 90 1009.7
20260506023120 10 45 1.6 6.4 0.00 0.28 0.00 90 1009.6
20260506021120 10 45 1.6 4.8 0.00 0.28 0.00 90 1009.7
20260506015120 10 45 1.6 6.4 0.00 0.28 0.00 90 1009.8
20260506013120 10 45 1.6 6.4 0.00 0.28 0.00 89 1009.8
20260506011120 10 22 1.6 6.4 0.00 0.28 0.00 89 1009.9
20260506005119 10 22 1.6 6.4 0.00 0.28 0.00 89 1010.0
20260506003120 10 22 1.6 6.4 0.00 0.28 0.00 89 1010.1
20260506001119 10 22 1.6 9.7 0.00 0.28 0.00 89 1010.2
20260505235119 10 22 1.6 4.8 0.00 0.25 0.00 89 1010.0
20260505233120 10 22 1.6 6.4 0.00 0.25 0.00 89 1010.2
20260505231117 10 22 1.6 4.8 0.00 0.25 0.00 89 1010.3
20260505225047 10 22 1.6 4.8 0.00 0.25 0.00 89 1010.4
20260505223047 10 0 1.6 6.4 0.00 0.25 0.00 89 1010.3
20260505221107 11 0 1.6 4.8 0.00 0.25 0.00 89 1010.3
20260505215108 11 0 1.6 6.4 0.00 0.25 0.25 89 1010.4
20260505213117 11 0.0 0.0 0.00 0.25 0.25 89 1010.4
20260505211117 -17 0.0 0.0 0.00 0.25 0.25
20260505210118 11 45 1.6 3.2 0.00 0.25 0.25 89 1010.4
20260505205117 -17 0.0 0.0 0.00 0.25 0.25
20260505203117 -17 0.0 0.0 0.00 0.25 0.25
20260505202129 11 45 3.2 6.4 0.00 0.25 0.25 89 1010.2
20260505201217 11 45 1.6 4.8 0.00 0.25 0.25 88 1010.1
20260505195120 11 45 3.2 11.3 0.00 0.25 0.25 88 1009.9
20260505193120 11 22 3.2 9.7 0.00 0.23 0.23 88 1009.7
20260505191120 11 22 3.2 12.9 0.03 0.23 0.23 88 1009.7
20260505185120 11 22 3.2 12.9 0.05 0.23 0.23 88 1009.7
20260505183120 11 22 3.2 11.3 0.05 0.20 0.20 88 1009.6
20260505181120 11 22 3.2 9.7 0.05 0.18 0.18 88 1009.5
20260505175121 11 22 3.2 14.5 0.05 0.18 0.18 87 1009.5
20260505173121 12 22 4.8 12.9 0.05 0.15 0.15 87 1009.6
20260505171120 12 45 3.2 11.3 0.08 0.13 0.13 87 1009.7
20260505165119 12 45 4.8 14.5 0.08 0.10 0.10 87 1009.8
20260505163120 12 45 4.8 12.9 0.08 0.08 0.08 86 1009.6
20260505161119 12 45 6.4 17.7 0.05 0.05 0.05 86 1009.5
20260505153120 12 45 3.2 8.0 0.00 0.00 0.00 86 1009.4
20260505151119 12 45 4.8 16.1 0.00 0.00 0.00 85 1009.5
20260505123119 13 22 4.8 16.1 0.00 0.00 0.00 86 1009.1
20260505121119 13 45 6.4 19.3 0.00 0.00 0.00 86 1009.0
20260505115119 13 45 4.8 14.5 0.00 0.00 0.00 86 1009.2
20260505113119 13 45 6.4 17.7 0.00 0.00 0.00 86 1009.3
20260505111118 12 22 3.2 12.9 0.00 0.00 0.00 86 1009.3
20260505101119 12 45 4.8 12.9 0.00 0.00 0.00 85 1009.4
20260505095120 13 45 3.2 14.5 0.00 0.00 0.00 85 1009.5
20260505093119 13 45 4.8 11.3 0.00 0.00 0.00 85 1009.4
20260505091119 13 45 4.8 16.1 0.00 0.00 0.00 85 1009.4
20260505085120 12 45 3.2 11.3 0.00 0.00 0.00 86 1009.4
20260505083119 12 22 4.8 16.1 0.00 0.00 0.00 87 1009.4
20260505081119 12 45 4.8 14.5 0.00 0.00 0.00 88 1009.4
20260505075120 12 45 1.6 8.0 0.00 0.00 0.00 88 1009.6
20260505073119 11 45 3.2 12.9 0.00 0.00 0.00 88 1009.5
20260505071118 11 45 3.2 11.3 0.00 0.00 0.00 88 1009.6
20260505065120 11 22 1.6 6.4 0.00 0.00 0.00 88 1009.6
20260505063121 11 0.0 6.4 0.00 0.00 0.00 89 1009.6
20260505061121 11 22 1.6 8.0 0.00 0.00 0.00 88 1009.6
20260505055120 11 45 1.6 6.4 0.00 0.00 0.00 88 1009.6
20260505053121 11 45 1.6 6.4 0.00 0.00 0.00 88 1009.5